SAS2883 ENVA-EKCH

Flight info

Callsign SAS2883
Flight time 1h 11m
Altitude 35000
Route EVNEN DCT ABUNO DCT TOPLA L996 ERNOV
Aircraft A320/M-SDE3FGHIRWY/LB1

Departure

Time 2026-04-25 20:35
Airport Trondheim Airport, Værnes (ENVA)

Arrival

Time 2026-04-25 21:47
Airport Copenhagen Kastrup Airport (EKCH)
Time Latitude Longitude Altitude Speed Heading
2026-04-25 20:10 63.45511 10.92281 40 ft 0 kts 270°
2026-04-25 20:30 63.45511 10.92308 40 ft 2 kts 270°
2026-04-25 20:30 63.45511 10.92344 41 ft 2 kts 270°
2026-04-25 20:30 63.45511 10.92380 42 ft 2 kts 270°
2026-04-25 20:30 63.45511 10.92417 42 ft 2 kts 262°
2026-04-25 20:31 63.45511 10.92453 42 ft 2 kts 317°
2026-04-25 20:31 63.45503 10.92467 37 ft 0 kts 356°
2026-04-25 20:32 63.45504 10.92467 37 ft 0 kts 356°
2026-04-25 20:32 63.45518 10.92464 41 ft 4 kts 355°
2026-04-25 20:33 63.45556 10.92449 42 ft 8 kts
2026-04-25 20:33 63.45594 10.92615 43 ft 18 kts 90°
2026-04-25 20:33 63.45594 10.92929 48 ft 21 kts 90°
2026-04-25 20:33 63.45594 10.93038 49 ft 21 kts 90°
2026-04-25 20:34 63.45591 10.93571 54 ft 21 kts 90°
2026-04-25 20:34 63.45612 10.93866 57 ft 18 kts 57°
2026-04-25 20:34 63.45702 10.94068 53 ft 19 kts 34°
2026-04-25 20:34 63.45758 10.93926 58 ft 17 kts 271°
2026-04-25 20:35 63.45759 10.93459 53 ft 58 kts 270°
2026-04-25 20:35 63.45760 10.92075 40 ft 117 kts 270°
2026-04-25 20:35 63.45771 10.89943 159 ft 146 kts 272°
2026-04-25 20:35 63.45753 10.87789 887 ft 132 kts 268°
2026-04-25 20:36 63.45644 10.85803 1520 ft 126 kts 271°
2026-04-25 20:36 63.45629 10.83857 1842 ft 130 kts 277°
2026-04-25 20:36 63.45663 10.81685 1990 ft 150 kts 278°
2026-04-25 20:36 63.45704 10.79116 2080 ft 180 kts 277°
2026-04-25 20:37 63.45740 10.76155 2330 ft 204 kts 277°
2026-04-25 20:37 63.45761 10.72939 3070 ft 209 kts 276°
2026-04-25 20:37 63.45771 10.69666 3897 ft 211 kts 276°
2026-04-25 20:37 63.45776 10.66371 4742 ft 213 kts 276°
2026-04-25 20:38 63.45778 10.63036 5558 ft 216 kts 276°
2026-04-25 20:38 63.45779 10.59665 6382 ft 218 kts 276°
2026-04-25 20:38 63.45662 10.56248 7152 ft 227 kts 258°
2026-04-25 20:38 63.44759 10.53211 7811 ft 251 kts 224°
2026-04-25 20:39 63.43082 10.51597 8051 ft 275 kts 193°
2026-04-25 20:39 63.41802 10.51404 8506 ft 283 kts 176°
2026-04-25 20:39 63.39943 10.52905 9321 ft 289 kts 145°
2026-04-25 20:39 63.38934 10.54837 9860 ft 290 kts 129°
2026-04-25 20:40 63.37618 10.60210 10378 ft 307 kts 98°
2026-04-25 20:40 63.37461 10.65056 10558 ft 324 kts 85°
2026-04-25 20:40 63.37466 10.70198 10992 ft 336 kts 85°
2026-04-25 20:40 63.37476 10.75445 11679 ft 341 kts 84°
2026-04-25 20:41 63.37483 10.80761 12368 ft 345 kts 85°
2026-04-25 20:41 63.37484 10.86144 13067 ft 348 kts 85°
2026-04-25 20:41 63.37475 10.91559 13768 ft 352 kts 85°
2026-04-25 20:41 63.37461 10.97042 14404 ft 355 kts 84°
2026-04-25 20:42 63.37445 11.02578 15022 ft 359 kts 83°
2026-04-25 20:42 63.37426 11.08175 15619 ft 362 kts 83°
2026-04-25 20:42 63.37405 11.13809 16202 ft 366 kts 83°
2026-04-25 20:42 63.37104 11.19545 16793 ft 382 kts 96°
2026-04-25 20:43 63.36137 11.25190 17325 ft 400 kts 112°
2026-04-25 20:43 63.34500 11.30235 17870 ft 416 kts 129°
2026-04-25 20:43 63.32204 11.34339 18379 ft 431 kts 147°
2026-04-25 20:43 63.29418 11.37205 18813 ft 440 kts 156°
2026-04-25 20:44 63.26599 11.39790 19148 ft 448 kts 155°
2026-04-25 20:44 63.23700 11.42449 19563 ft 454 kts 155°
2026-04-25 20:44 63.20761 11.45150 20095 ft 460 kts 155°
2026-04-25 20:44 63.17750 11.47913 20558 ft 466 kts 155°
2026-04-25 20:45 63.14769 11.50643 20969 ft 472 kts 155°
2026-04-25 20:45 63.11717 11.53437 21389 ft 478 kts 155°
2026-04-25 20:45 63.08623 11.56264 21778 ft 484 kts 155°
2026-04-25 20:45 63.05485 11.59120 22170 ft 490 kts 154°
2026-04-25 20:46 63.02306 11.61992 22575 ft 496 kts 156°
2026-04-25 20:46 62.98984 11.64248 22991 ft 504 kts 167°
2026-04-25 20:46 62.95496 11.65509 23393 ft 510 kts 173°
2026-04-25 20:46 62.91957 11.66570 23706 ft 517 kts 173°
2026-04-25 20:47 62.88379 11.67651 24055 ft 521 kts 173°
2026-04-25 20:47 62.84788 11.68744 24414 ft 524 kts 173°
2026-04-25 20:47 62.81150 11.69856 24790 ft 527 kts 173°
2026-04-25 20:47 62.77506 11.70979 25159 ft 530 kts 173°
2026-04-25 20:48 62.73839 11.72110 25513 ft 533 kts 173°
2026-04-25 20:48 62.70154 11.73243 25874 ft 536 kts 173°
2026-04-25 20:48 62.66447 11.74369 26223 ft 539 kts 173°
2026-04-25 20:48 62.62727 11.75488 26492 ft 541 kts 173°
2026-04-25 20:49 62.58994 11.76605 26895 ft 543 kts 173°
2026-04-25 20:49 62.55245 11.77728 27315 ft 545 kts 173°
2026-04-25 20:49 62.51488 11.78856 27654 ft 547 kts 173°
2026-04-25 20:49 62.47696 11.79993 27990 ft 550 kts 173°
2026-04-25 20:50 62.43899 11.81128 28391 ft 554 kts 173°
2026-04-25 20:50 62.40062 11.82272 28681 ft 557 kts 173°
2026-04-25 20:50 62.36215 11.83417 29002 ft 560 kts 173°
2026-04-25 20:50 62.32336 11.84568 29329 ft 563 kts 173°
2026-04-25 20:51 62.28447 11.85711 29621 ft 564 kts 173°
2026-04-25 20:51 62.24557 11.86852 29964 ft 566 kts 173°
2026-04-25 20:51 62.20643 11.88002 30324 ft 566 kts 173°
2026-04-25 20:51 62.16751 11.89142 30761 ft 564 kts 174°
2026-04-25 20:52 62.12866 11.90279 31233 ft 561 kts 174°
2026-04-25 20:52 62.10300 11.91032 31559 ft 559 kts 174°
2026-04-25 20:52 62.05161 11.92531 32218 ft 555 kts 174°
2026-04-25 20:52 62.01347 11.93638 32715 ft 552 kts 175°
2026-04-25 20:53 61.97534 11.94293 32967 ft 549 kts 181°
2026-04-25 20:53 61.93726 11.94656 33040 ft 548 kts 181°
2026-04-25 20:53 61.86116 11.95343 33037 ft 547 kts 181°
2026-04-25 20:54 61.78557 11.96042 33030 ft 547 kts 181°
2026-04-25 20:54 61.70954 11.96751 33036 ft 547 kts 181°
2026-04-25 20:55 61.63326 11.97445 33025 ft 550 kts 181°
2026-04-25 20:55 61.55684 11.98152 33025 ft 550 kts 181°
2026-04-25 20:56 61.48022 11.98872 33027 ft 550 kts 181°
2026-04-25 20:56 61.40412 11.99570 33028 ft 550 kts 181°
2026-04-25 20:57 61.32687 12.00264 33034 ft 554 kts 181°
2026-04-25 20:57 61.25012 12.00955 33027 ft 555 kts 181°
2026-04-25 20:58 61.17236 12.01650 33028 ft 556 kts 181°
2026-04-25 20:58 61.09519 12.02353 33021 ft 556 kts 181°
2026-04-25 20:59 61.01785 12.03060 33018 ft 556 kts 181°
2026-04-25 20:59 60.94102 12.03742 33019 ft 556 kts 181°
2026-04-25 21:00 60.88936 12.04195 33035 ft 556 kts 181°
2026-04-25 21:01 60.74752 12.05429 33030 ft 557 kts 181°
2026-04-25 21:01 60.67010 12.06106 33019 ft 557 kts 181°
2026-04-25 21:02 60.59249 12.06795 33016 ft 557 kts 181°
2026-04-25 21:02 60.51497 12.07466 33019 ft 557 kts 181°
2026-04-25 21:03 60.43753 12.08129 33020 ft 555 kts 181°
2026-04-25 21:03 60.36052 12.08793 33017 ft 554 kts 181°
2026-04-25 21:04 60.28335 12.09458 33017 ft 554 kts 181°
2026-04-25 21:04 60.20626 12.10116 33113 ft 554 kts 180°
2026-04-25 21:04 60.16760 12.10440 32975 ft 555 kts 180°
2026-04-25 21:05 60.12895 12.10761 33018 ft 556 kts 180°
2026-04-25 21:05 60.05153 12.11398 33017 ft 557 kts 180°
2026-04-25 21:06 59.97416 12.12029 33013 ft 557 kts 180°
2026-04-25 21:06 59.89680 12.12685 32978 ft 556 kts 181°
2026-04-25 21:07 59.81928 12.13346 33017 ft 558 kts 181°
2026-04-25 21:07 59.74201 12.13973 33013 ft 558 kts 181°
2026-04-25 21:08 59.66396 12.14683 33014 ft 559 kts 180°
2026-04-25 21:08 59.58619 12.15733 33007 ft 560 kts 179°
2026-04-25 21:09 59.46954 12.17465 33027 ft 560 kts 179°
2026-04-25 21:09 59.39226 12.18493 33026 ft 560 kts 179°
2026-04-25 21:10 59.31436 12.19489 32977 ft 560 kts 179°
2026-04-25 21:10 59.23664 12.20485 33017 ft 560 kts 179°
2026-04-25 21:11 59.15877 12.21512 33038 ft 560 kts 179°
2026-04-25 21:11 59.08102 12.22536 33026 ft 560 kts 179°
2026-04-25 21:12 59.00312 12.23553 33011 ft 559 kts 180°
2026-04-25 21:12 58.95120 12.24227 33034 ft 559 kts 180°
2026-04-25 21:13 58.84763 12.25541 33033 ft 559 kts 180°
2026-04-25 21:13 58.77002 12.26533 33033 ft 559 kts 180°
2026-04-25 21:14 58.69249 12.27524 33039 ft 558 kts 180°
2026-04-25 21:14 58.61495 12.28504 33033 ft 558 kts 180°
2026-04-25 21:15 58.53753 12.29481 33022 ft 558 kts 180°
2026-04-25 21:15 58.46008 12.30451 33017 ft 558 kts 180°
2026-04-25 21:16 58.38261 12.31414 33021 ft 557 kts 180°
2026-04-25 21:16 58.30509 12.32388 33029 ft 557 kts 180°
2026-04-25 21:17 58.24077 12.33187 33030 ft 557 kts 180°
2026-04-25 21:17 58.16328 12.34135 33032 ft 557 kts 180°
2026-04-25 21:18 58.08646 12.35070 33082 ft 549 kts 180°
2026-04-25 21:18 58.01016 12.36009 33032 ft 550 kts 180°
2026-04-25 21:19 57.93374 12.36936 33024 ft 550 kts 180°
2026-04-25 21:19 57.85719 12.37865 32964 ft 550 kts 180°
2026-04-25 21:20 57.79364 12.38637 33030 ft 551 kts 180°
2026-04-25 21:20 57.70417 12.39719 33025 ft 550 kts 180°
2026-04-25 21:21 57.66596 12.40173 32892 ft 547 kts 180°
2026-04-25 21:21 57.62881 12.40617 32657 ft 538 kts 180°
2026-04-25 21:21 57.59168 12.41064 32396 ft 533 kts 180°
2026-04-25 21:21 57.55445 12.41512 32082 ft 529 kts 180°
2026-04-25 21:22 57.51815 12.41945 31823 ft 527 kts 180°
2026-04-25 21:22 57.48163 12.42380 31572 ft 526 kts 180°
2026-04-25 21:22 57.44505 12.42813 31321 ft 525 kts 180°
2026-04-25 21:22 57.40863 12.43239 31065 ft 524 kts 180°
2026-04-25 21:23 57.37216 12.43661 30822 ft 523 kts 180°
2026-04-25 21:23 57.33584 12.44082 30378 ft 523 kts 179°
2026-04-25 21:23 57.29947 12.44507 29694 ft 525 kts 179°
2026-04-25 21:23 57.26306 12.44936 29246 ft 522 kts 179°
2026-04-25 21:24 57.22685 12.45366 28685 ft 522 kts 179°
2026-04-25 21:24 57.19065 12.45795 28167 ft 520 kts 179°
2026-04-25 21:24 57.15441 12.46224 27635 ft 520 kts 179°
2026-04-25 21:24 57.11839 12.46648 27108 ft 519 kts 179°
2026-04-25 21:25 57.08289 12.47063 26558 ft 514 kts 179°
2026-04-25 21:25 57.04759 12.47481 26146 ft 503 kts 179°
2026-04-25 21:25 57.01280 12.47886 25443 ft 497 kts 180°
2026-04-25 21:25 56.97865 12.48274 24964 ft 487 kts 180°
2026-04-25 21:26 56.94511 12.48655 24406 ft 479 kts 180°
2026-04-25 21:26 56.91203 12.49029 23868 ft 472 kts 180°
2026-04-25 21:26 56.87946 12.49398 23266 ft 466 kts 180°
2026-04-25 21:26 56.84742 12.49763 22723 ft 456 kts 180°
2026-04-25 21:27 56.81601 12.50123 22184 ft 448 kts 180°
2026-04-25 21:27 56.78517 12.50477 21670 ft 439 kts 180°
2026-04-25 21:27 56.75493 12.50826 21156 ft 432 kts 180°
2026-04-25 21:27 56.72526 12.51167 20652 ft 422 kts 181°
2026-04-25 21:28 56.69617 12.51496 20158 ft 416 kts 181°
2026-04-25 21:28 56.66743 12.51819 19668 ft 409 kts 181°
2026-04-25 21:28 56.63918 12.52134 19173 ft 404 kts 181°
2026-04-25 21:28 56.61130 12.52445 18708 ft 400 kts 181°
2026-04-25 21:29 56.58360 12.52759 18211 ft 396 kts 181°
2026-04-25 21:29 56.55623 12.53071 17706 ft 390 kts 181°
2026-04-25 21:29 56.52937 12.53371 17247 ft 384 kts 181°
2026-04-25 21:29 56.50289 12.53664 16793 ft 378 kts 181°
2026-04-25 21:30 56.47680 12.53953 16314 ft 372 kts 181°
2026-04-25 21:30 56.45113 12.54240 15902 ft 370 kts 181°
2026-04-25 21:30 56.42527 12.54527 15459 ft 373 kts 181°
2026-04-25 21:30 56.40806 12.54718 15166 ft 374 kts 180°
2026-04-25 21:31 56.37364 12.54688 14830 ft 359 kts 197°
2026-04-25 21:31 56.34992 12.53876 14744 ft 343 kts 198°
2026-04-25 21:31 56.32653 12.53057 14669 ft 342 kts 198°
2026-04-25 21:31 56.30319 12.52227 14595 ft 341 kts 198°
2026-04-25 21:32 56.27963 12.51381 13957 ft 350 kts 198°
2026-04-25 21:32 56.25565 12.50518 13221 ft 350 kts 197°
2026-04-25 21:32 56.23198 12.49679 12613 ft 344 kts 197°
2026-04-25 21:32 56.20874 12.48860 12013 ft 338 kts 197°
2026-04-25 21:33 56.18580 12.48052 11408 ft 333 kts 196°
2026-04-25 21:33 56.16322 12.47258 10855 ft 327 kts 195°
2026-04-25 21:33 56.14107 12.46478 10323 ft 321 kts 195°
2026-04-25 21:33 56.11938 12.45713 9811 ft 314 kts 195°
2026-04-25 21:34 56.09816 12.44965 9250 ft 308 kts 194°
2026-04-25 21:34 56.07723 12.44229 8666 ft 304 kts 194°
2026-04-25 21:34 56.05660 12.43505 8117 ft 299 kts 194°
2026-04-25 21:34 56.03629 12.42793 7972 ft 299 kts 194°
2026-04-25 21:35 56.01583 12.42078 7803 ft 298 kts 194°
2026-04-25 21:35 55.99561 12.41374 7238 ft 294 kts 193°
2026-04-25 21:35 55.97561 12.40676 6662 ft 292 kts 193°
2026-04-25 21:35 55.95580 12.39982 6083 ft 288 kts 193°
2026-04-25 21:36 55.93615 12.39293 5477 ft 286 kts 193°
2026-04-25 21:36 55.91681 12.38617 5074 ft 280 kts 192°
2026-04-25 21:36 55.89748 12.37943 5022 ft 284 kts 192°
2026-04-25 21:36 55.87794 12.37262 5020 ft 286 kts 193°
2026-04-25 21:37 55.85831 12.36580 5023 ft 288 kts 192°
2026-04-25 21:37 55.84533 12.36131 5022 ft 286 kts 192°
2026-04-25 21:37 55.81920 12.35224 5030 ft 285 kts 192°
2026-04-25 21:37 55.79970 12.34546 5036 ft 286 kts 192°
2026-04-25 21:38 55.78016 12.33868 5027 ft 286 kts 192°
2026-04-25 21:38 55.76088 12.33204 5025 ft 286 kts 192°
2026-04-25 21:38 55.74136 12.32528 5026 ft 286 kts 193°
2026-04-25 21:38 55.72160 12.31842 4973 ft 285 kts 192°
2026-04-25 21:39 55.70251 12.31183 4508 ft 282 kts 192°
2026-04-25 21:39 55.68321 12.30518 3864 ft 283 kts 193°
2026-04-25 21:39 55.66390 12.29849 3258 ft 282 kts 193°
2026-04-25 21:39 55.64476 12.29189 3040 ft 282 kts 193°
2026-04-25 21:40 55.62546 12.28527 3028 ft 283 kts 193°
2026-04-25 21:40 55.60607 12.27861 3032 ft 284 kts 193°
2026-04-25 21:40 55.58671 12.27286 3023 ft 277 kts 184°
2026-04-25 21:40 55.56826 12.27732 3025 ft 261 kts 158°
2026-04-25 21:41 55.55245 12.29193 2934 ft 256 kts 146°
2026-04-25 21:41 55.53676 12.30541 2996 ft 243 kts 161°
2026-04-25 21:41 55.51970 12.31120 3378 ft 256 kts 178°
2026-04-25 21:41 55.50190 12.30921 3560 ft 257 kts 184°
2026-04-25 21:42 55.48421 12.31173 3707 ft 254 kts 162°
2026-04-25 21:42 55.46890 12.32581 3856 ft 247 kts 136°
2026-04-25 21:42 55.45833 12.34956 3281 ft 248 kts 109°
2026-04-25 21:42 55.45404 12.37825 2779 ft 243 kts 84°
2026-04-25 21:43 55.45849 12.40389 2804 ft 203 kts 42°
2026-04-25 21:43 55.46888 12.41921 2655 ft 189 kts 27°
2026-04-25 21:43 55.47964 12.43223 2661 ft 190 kts 32°
2026-04-25 21:43 55.48999 12.44679 2617 ft 190 kts 34°
2026-04-25 21:44 55.50006 12.46188 2450 ft 190 kts 34°
2026-04-25 21:44 55.51001 12.47708 2218 ft 187 kts 34°
2026-04-25 21:44 55.52837 12.50533 1747 ft 161 kts 33°
2026-04-25 21:45 55.53641 12.51772 1515 ft 145 kts 32°
2026-04-25 21:45 55.54129 12.52522 1390 ft 137 kts 32°
2026-04-25 21:45 55.55061 12.53952 1154 ft 130 kts 32°
2026-04-25 21:45 55.55746 12.55002 978 ft 131 kts 34°
2026-04-25 21:46 55.56431 12.56055 790 ft 132 kts 35°
2026-04-25 21:46 55.57130 12.57130 609 ft 135 kts 37°
2026-04-25 21:46 55.57841 12.58221 454 ft 135 kts 36°
2026-04-25 21:46 55.58546 12.59324 225 ft 135 kts 36°
2026-04-25 21:47 55.59255 12.60400 54 ft 134 kts 33°
2026-04-25 21:47 55.59910 12.61394 23 ft 96 kts 40°
2026-04-25 21:47 55.60230 12.61890 24 ft 49 kts 42°
2026-04-25 21:47 55.60482 12.62269 26 ft 40 kts 32°
2026-04-25 21:48 55.60692 12.62360 25 ft 26 kts 14°
2026-04-25 21:48 55.60829 12.62455 24 ft 21 kts 37°
2026-04-25 21:48 55.60928 12.62607 24 ft 19 kts 41°
2026-04-25 21:48 55.61033 12.62772 24 ft 22 kts 41°
2026-04-25 21:49 55.61147 12.62944 24 ft 18 kts 40°
2026-04-25 21:49 55.61240 12.63092 24 ft 19 kts 42°
2026-04-25 21:49 55.61348 12.63260 24 ft 22 kts 40°
2026-04-25 21:49 55.61471 12.63449 25 ft 25 kts 42°
2026-04-25 21:50 55.61607 12.63661 24 ft 27 kts 40°
2026-04-25 21:50 55.61744 12.63864 26 ft 24 kts 39°
2026-04-25 21:50 55.61831 12.63996 25 ft 9 kts 41°
2026-04-25 21:50 55.61868 12.64050 24 ft 12 kts 32°
2026-04-25 21:51 55.61972 12.64160 26 ft 15 kts 28°
2026-04-25 21:51 55.62054 12.64229 25 ft 12 kts 25°
2026-04-25 21:51 55.62140 12.64302 23 ft 15 kts 25°
2026-04-25 21:51 55.62252 12.64385 22 ft 17 kts 17°
2026-04-25 21:52 55.62365 12.64439 24 ft 15 kts 14°
2026-04-25 21:52 55.62442 12.64472 24 ft 11 kts 10°
2026-04-25 21:52 55.62515 12.64415 24 ft 13 kts 311°
2026-04-25 21:52 55.62574 12.64294 25 ft 12 kts 325°
2026-04-25 21:53 55.62658 12.64303 25 ft 14 kts 26°
2026-04-25 21:53 55.62726 12.64363 24 ft 7 kts 24°
2026-04-25 21:53 55.62758 12.64414 24 ft 8 kts 78°
2026-04-25 21:53 55.62755 12.64471 24 ft 1 kts 98°
2026-04-25 21:54 55.62754 12.64475 24 ft 0 kts 98°